This is the latest recevied weather packets stored in our database for station/object ON5MM-5. If no packets are shown the sender has not sent any weather packets the latest 10 day(s).
| Time | Temp. | Humidity | Pressure | Rain* | Wind** | Luminosity | Snow |
|---|---|---|---|---|---|---|---|
| 1777398903 | 16.67° C | 36% | 1020.6 hPa | 0 mm | 2.24 m/s, ° | - | - |
| 1777398602 | 16.67° C | 36% | 1020.6 hPa | 0 mm | 1.79 m/s, ° | - | - |
| 1777398303 | 17.22° C | 36% | 1020.6 hPa | 0 mm | 1.79 m/s, ° | - | - |
| 1777398002 | 17.22° C | 36% | 1020.5 hPa | 0 mm | 2.68 m/s, ° | - | - |
| 1777397703 | 17.22° C | 36% | 1020.5 hPa | 0 mm | 1.34 m/s, ° | - | - |
| 1777397402 | 17.78° C | 36% | 1020.4 hPa | 0 mm | 1.34 m/s, ° | - | - |
| 1777397103 | 17.78° C | 36% | 1020.4 hPa | 0 mm | 1.34 m/s, ° | - | - |
| 1777396803 | 17.78° C | 36% | 1020.3 hPa | 0 mm | 1.79 m/s, ° | - | - |
| 1777396502 | 17.78° C | 36% | 1020.4 hPa | 0 mm | 1.79 m/s, ° | - | - |
| 1777396202 | 18.33° C | 36% | 1020.3 hPa | 0 mm | 1.79 m/s, ° | - | - |
| 1777395902 | 18.33° C | 35% | 1020.3 hPa | 0 mm | 2.24 m/s, ° | - | - |
| 1777395602 | 18.89° C | 35% | 1020.3 hPa | 0 mm | 1.79 m/s, ° | - | - |
| 1777395303 | 18.89° C | 35% | 1020.3 hPa | 0 mm | 1.79 m/s, ° | - | - |
| 1777395003 | 18.89° C | 34% | 1020.3 hPa | 0 mm | 2.24 m/s, ° | - | - |
| 1777394703 | 18.89° C | 34% | 1020.2 hPa | 0 mm | 2.68 m/s, ° | - | - |
| 1777394403 | 19.44° C | 35% | 1020.3 hPa | 0 mm | 1.34 m/s, ° | - | - |
| 1777394102 | 19.44° C | 34% | 1020.2 hPa | 0 mm | 2.24 m/s, ° | - | - |
| 1777393802 | 19.44° C | 35% | 1020.3 hPa | 0 mm | 1.79 m/s, ° | - | - |
| 1777393502 | 19.44° C | 35% | 1020.2 hPa | 0 mm | 1.79 m/s, ° | - | - |
| 1777393202 | 18.89° C | 34% | 1020.1 hPa | 0 mm | 2.24 m/s, ° | - | - |
| 1777392902 | 18.89° C | 34% | 1020.1 hPa | 0 mm | 2.24 m/s, ° | - | - |
| 1777392603 | 19.44° C | 34% | 1020.1 hPa | 0 mm | 2.24 m/s, ° | - | - |
| 1777392302 | 19.44° C | 34% | 1020.1 hPa | 0 mm | 1.79 m/s, ° | - | - |
| 1777392003 | 19.44° C | 34% | 1020.1 hPa | 0 mm | 2.24 m/s, ° | - | - |
| 1777391703 | 20° C | 35% | 1020 hPa | 0 mm | 2.24 m/s, ° | - | - |
* Rain latest hour (hover to see other rain measurements)
** Current wind speed in m/s (hover to see current wind gust speed)